Regional Weather Roundup
Issued by NWS

Home | Current Version | Previous Version | Text Only | Print | Product List | Glossary On
Versions: 1 2 3 4 5 6 7 8 9 10 11 12 13 14 15 16 17 18 19 20 21 22 23 24 25 26 27 28 29 30 31 32 33 34 35 36 37 38 39 40 41 42 43 44 45 46 47 48 49 50
000
ASUS43 KLSX 290407
RWRMO

WEATHER SUMMARY FOR MISSOURI
NATIONAL WEATHER SERVICE SPRINGFIELD MO
1100 PM CDT SAT MAR 28 2015

NOTE: "FAIR" INDICATES FEW OR NO CLOUDS BELOW 12,000 FEET WITH NO
       SIGNIFICANT WEATHER AND/OR OBSTRUCTIONS TO VISIBILITY.
       CURRENT SKY AND/OR WEATHER CONDITIONS ARE NOT AVAILABLE FOR
       CHILLICOTHE AND FARMINGTON.

MOZ001>031-035>038-043-044-053-054-290500-
...NORTHERN AND WESTERN MISSOURI...

CITY           SKY/WX    TMP DP  RH WIND       PRES   REMARKS
KANSAS CTY INT CLEAR     43  30  60 SE17G26   30.09F
KANSAS C DTWN  CLEAR     46  30  53 SE8G18    30.11F
LEE`S SUMMIT   CLEAR     41  31  67 SE7       30.13S
ST JOSEPH      CLEAR     43  32  65 S10       30.09F
CHILLICOTHE      N/A     42  30  62 SE9       30.15F
KIRKSVILLE     CLEAR     34  25  69 SE9       30.18F WCI  27

$$
MOZ066>068-077>081-088>096-101>105-290500-
...SOUTHWEST MISSOURI...

CITY           SKY/WX    TMP DP  RH WIND       PRES   REMARKS
SPRINGFIELD    CLEAR     37  31  78 SE17      30.16S WCI  27
JOPLIN         CLEAR     42  32  67 SE9       30.12S

$$
MOZ032>034-039>042-045>050-055>058-069>072-290500-
...CENTRAL MISSOURI...

CITY           SKY/WX    TMP DP  RH WIND       PRES   REMARKS
COLUMBIA       CLEAR     36  30  79 S7        30.21R
JEFFERSON CITY CLEAR     39  30  70 SE6       30.23S
ROLLA          CLEAR     35  29  78 S9        30.20F WCI  28
SEDALIA        CLEAR     40  31  70 SE10      30.18S
WHITEMAN AFB   CLEAR     40  31  72 SE12      30.15F
WARRENSBURG    CLEAR     39  32  75 SE10G17   30.16F
OSAGE BEACH    CLEAR     37  28  70 SE7       30.21S

$$
MOZ051-052-059>065-290500-
...EAST CENTRAL MISSOURI...

CITY           SKY/WX    TMP DP  RH WIND       PRES   REMARKS
ST LOUIS INTL  CLEAR     38  19  46 SE10      30.29S
SPIRIT OF STL  CLEAR     38  19  46 SE7       30.27S
ST CHARLES     CLEAR     33  23  66 SE7       30.28F WCI  27

$$
MOZ072>076-082>087-097>100-106>115-290500-
...SOUTH CENTRAL AND SOUTHEAST MISSOURI...

CITY           SKY/WX    TMP DP  RH WIND       PRES   REMARKS
CAPE GIRARDEAU CLEAR     33  28  81 S3        30.32S
FARMINGTON     CLEAR     36  21  55 S6        30.30F
POPLAR BLUFF   CLEAR     36  31  82 CALM      30.31S
WEST PLAINS    MOCLDY    34  29  82 SE6       30.26S WCI  29

$$



USA.gov is the U.S. government's official web portal to all federal, state and local government web resources and services.